Погода в Хайдарабаде

Пакистан     25°24′41″N   68°20′34″E
темп.,
°C
ветер,
м/с
пор.,
м/с
влажн.,
%
обл.,
%
осадки,
мм/ч
давл.,
гПа
погр.,
м
27 января, ср
ср2723:00+14всв34140 0.0 101723
02:00+11ссз01200 0.0 101623
05:00+11св23190 0.0 101623
08:00+13ссв34160 0.0 101724
11:00+22ссв3490 0.0 1019486
14:00+25ссв2370 0.0 10151497
17:00+25с2370 0.0 101490
20:00+17с45110 0.0 101626
28 января, чт
чт2823:00+14с23150 0.0 101723
02:00+14ссз45140 0.0 101624
05:00+13ссв45180 0.0 101626
08:00+13с45160 0.0 101943
11:00+22ссв4490 0.0 1019487
14:00+26ссв2370 0.0 10161515
17:00+25ссз3360 0.0 1015200
20:00+18с34100 0.0 101723
29 января, пт
пт2923:00+14св23150 0.0 101823
02:00+12с22170 0.0 101723
05:00+11св23180 0.0 101723
08:00+13св22160 0.0 101923
11:00+22в2280 0.0 1019452
14:00+26вюв1160 0.0 10171289
17:00+26ю1160 0.0 101524
20:00+16юз12100 0.0 101723
30 января, сб
сб3023:00+14всв12120 0.0 101723
02:00+12сз11130 0.0 101623
05:00+11всв12140 0.0 101523
08:00+13ссв11130 0.0 101723
11:00+24вюв1160 0.0 1018508
14:00+27ю2250 0.0 10141223
17:00+27ю2250 0.0 101339
20:00+17ююв1290 0.0 101523
31 января, вс
вс3123:00+16юз34180 0.0 101523
02:00+15зюз23160 0.0 101423
05:00+13зюз12160 0.0 101423
08:00+15ссз22130 0.0 101523
11:00+25вюв0170 0.0 1017450
14:00+29ююз3350 0.0 10141306
17:00+29ю2250 0.0 101347
20:00+19ююз23130 0.0 101523